When you browse on this site, cookies collect data to enhance your experience and personalize the content and advertising you see.
Visit our Privacy Policy to learn more. By continuing to use the site, you agree to this use of cookies and data.
  • In United Kingdom
  • List of Countries
  • For 7 days
  • Water Temperature
  • Satellite Maps
  • Weather Map
  • Weather Widgets
  • user-avatar
    Login

    Hourly Weather Maun

    Today, 21 November, Wednesday

    Time Temperature Precipitation Wind Pressure Humidity
    00:00 +31°C° 0.2 mm 2 mps 679 mmHg 31%
    01:00 +30°C° 0.2 mm 2 mps 679 mmHg 33%
    02:00 +30°C° 0.2 mm 3 mps 679 mmHg 36%
    03:00 +29°C° 0.2 mm 3 mps 679 mmHg 37%
    04:00 +29°C° 0.2 mm 2 mps 679 mmHg 39%
    05:00 +28°C° 0.2 mm 2 mps 679 mmHg 41%
    06:00 +30°C° 0.1 mm 3 mps 679 mmHg 38%
    07:00 +32°C° 0.1 mm 4 mps 680 mmHg 34%
    08:00 +33°C° 0.1 mm 4 mps 681 mmHg 31%
    09:00 +35°C° 0 mm 3 mps 681 mmHg 27%
    10:00 +37°C° 0 mm 3 mps 681 mmHg 24%
    11:00 +39°C° 0 mm 2 mps 681 mmHg 20%
    12:00 +40°C° 0 mm 2 mps 681 mmHg 19%
    13:00 +41°C° 0 mm 1 mps 680 mmHg 18%
    14:00 +41°C° 0 mm 1 mps 679 mmHg 17%
    15:00 +41°C° 0 mm 1 mps 679 mmHg 17%
    16:00 +40°C° 0 mm 1 mps 678 mmHg 17%
    17:00 +40°C° 0 mm 1 mps 678 mmHg 17%
    18:00 +37°C° 0 mm 1 mps 678 mmHg 19%
    19:00 +36°C° 0 mm 1 mps 678 mmHg 21%
    20:00 +34°C° 0 mm 1 mps 678 mmHg 23%
    21:00 +34°C° 0.1 mm 1 mps 678 mmHg 25%
    22:00 +34°C° 0.1 mm 2 mps 679 mmHg 26%
    23:00 +32°C° 0.1 mm 2 mps 679 mmHg 27%

    Tomorrow, 22 November, Thursday

    Time Temperature Precipitation Wind Pressure Humidity
    00:00 +31°C° 0.2 mm 2 mps 679 mmHg 30%
    01:00 +30°C° 0.2 mm 2 mps 678 mmHg 33%
    02:00 +29°C° 0.2 mm 2 mps 678 mmHg 36%
    03:00 +29°C° 0.5 mm 2 mps 678 mmHg 40%
    04:00 +28°C° 0.5 mm 1 mps 678 mmHg 43%
    05:00 +27°C° 0.5 mm 1 mps 678 mmHg 46%
    06:00 +29°C° 0.1 mm 2 mps 679 mmHg 40%
    07:00 +30°C° 0.1 mm 2 mps 679 mmHg 33%
    08:00 +33°C° 0.1 mm 3 mps 680 mmHg 26%
    09:00 +35°C° 0 mm 3 mps 680 mmHg 24%
    10:00 +37°C° 0 mm 3 mps 680 mmHg 21%
    11:00 +39°C° 0 mm 3 mps 681 mmHg 18%
    12:00 +39°C° 0.1 mm 2 mps 680 mmHg 17%
    13:00 +40°C° 0.1 mm 2 mps 679 mmHg 17%
    14:00 +40°C° 0.1 mm 2 mps 679 mmHg 16%
    15:00 +39°C° 0.2 mm 3 mps 678 mmHg 19%
    16:00 +37°C° 0.2 mm 4 mps 678 mmHg 22%
    17:00 +36°C° 0.2 mm 4 mps 678 mmHg 24%
    18:00 +35°C° 0.2 mm 4 mps 678 mmHg 28%
    19:00 +33°C° 0.2 mm 4 mps 678 mmHg 31%
    20:00 +32°C° 0.2 mm 4 mps 679 mmHg 34%
    21:00 +32°C° 0 mm 4 mps 679 mmHg 34%
    22:00 +30°C° 0 mm 3 mps 679 mmHg 35%
    23:00 +30°C° 0 mm 2 mps 680 mmHg 35%

    Day after tomorrow, 23 November, Friday

    Time Temperature Precipitation Wind Pressure Humidity
    00:00 +30°C° 0 mm 2 mps 679 mmHg 35%
    01:00 +30°C° 0 mm 3 mps 679 mmHg 35%
    02:00 +30°C° 0 mm 3 mps 679 mmHg 36%
    03:00 +30°C° 0 mm 4 mps 679 mmHg 35%
    04:00 +29°C° 0 mm 4 mps 679 mmHg 34%
    05:00 +29°C° 0 mm 4 mps 679 mmHg 34%
    06:00 +30°C° 0 mm 4 mps 680 mmHg 35%
    07:00 +30°C° 0 mm 4 mps 681 mmHg 36%
    08:00 +32°C° 0 mm 5 mps 682 mmHg 37%
    09:00 +33°C° 0 mm 5 mps 682 mmHg 36%
    10:00 +33°C° 0 mm 5 mps 682 mmHg 35%
    11:00 +34°C° 0 mm 5 mps 682 mmHg 33%
    12:00 +34°C° 0 mm 5 mps 682 mmHg 32%
    13:00 +35°C° 0 mm 5 mps 681 mmHg 31%
    14:00 +35°C° 0 mm 5 mps 681 mmHg 30%
    15:00 +35°C° 0 mm 5 mps 680 mmHg 29%
    16:00 +35°C° 0 mm 5 mps 680 mmHg 28%
    17:00 +35°C° 0 mm 4 mps 679 mmHg 28%
    18:00 +33°C° 0 mm 3 mps 679 mmHg 30%
    19:00 +31°C° 0 mm 2 mps 679 mmHg 32%
    20:00 +30°C° 0 mm 1 mps 680 mmHg 35%
    21:00 +29°C° 0 mm 2 mps 680 mmHg 36%
    22:00 +28°C° 0 mm 2 mps 680 mmHg 38%
    23:00 +28°C° 0 mm 2 mps 681 mmHg 40%

    24 November, Saturday

    Time Temperature Precipitation Wind Pressure Humidity
    00:00 +27°C° 0 mm 2 mps 680 mmHg 41%
    01:00 +27°C° 0 mm 3 mps 680 mmHg 43%
    02:00 +27°C° 0 mm 3 mps 680 mmHg 45%
    03:00 +26°C° 0 mm 3 mps 680 mmHg 49%
    04:00 +26°C° 0 mm 2 mps 680 mmHg 53%
    05:00 +25°C° 0 mm 2 mps 680 mmHg 58%
    06:00 +26°C° 0 mm 3 mps 681 mmHg 56%
    07:00 +27°C° 0 mm 3 mps 682 mmHg 54%
    08:00 +28°C° 0 mm 4 mps 682 mmHg 52%
    09:00 +30°C° 0 mm 4 mps 682 mmHg 45%
    10:00 +34°C° 0 mm 4 mps 682 mmHg 38%
    11:00 +36°C° 0 mm 4 mps 683 mmHg 31%
    12:00 +36°C° 0 mm 3 mps 682 mmHg 30%
    13:00 +36°C° 0 mm 3 mps 681 mmHg 28%
    14:00 +37°C° 0 mm 2 mps 680 mmHg 26%
    15:00 +37°C° 0 mm 2 mps 680 mmHg 27%
    16:00 +36°C° 0 mm 2 mps 680 mmHg 27%
    17:00 +36°C° 0 mm 2 mps 679 mmHg 27%
    18:00 +35°C° 0 mm 2 mps 680 mmHg 29%
    19:00 +34°C° 0 mm 2 mps 680 mmHg 32%
    20:00 +32°C° 0 mm 2 mps 680 mmHg 34%
    21:00 +31°C° 0 mm 2 mps 680 mmHg 37%
    22:00 +30°C° 0 mm 2 mps 680 mmHg 41%
    23:00 +29°C° 0 mm 2 mps 680 mmHg 44%

    25 November, Sunday

    Time Temperature Precipitation Wind Pressure Humidity
    00:00 +28°C° 0 mm 2 mps 680 mmHg 46%
    01:00 +28°C° 0 mm 2 mps 680 mmHg 48%
    02:00 +27°C° 0 mm 3 mps 680 mmHg 50%
    03:00 +27°C° 0 mm 3 mps 680 mmHg 54%
    04:00 +26°C° 0 mm 3 mps 680 mmHg 57%
    05:00 +26°C° 0 mm 3 mps 680 mmHg 61%
    06:00 +27°C° 0 mm 3 mps 681 mmHg 56%
    07:00 +28°C° 0 mm 4 mps 681 mmHg 51%
    08:00 +30°C° 0 mm 5 mps 682 mmHg 47%
    09:00 +33°C° 0 mm 5 mps 682 mmHg 41%
    10:00 +35°C° 0 mm 4 mps 682 mmHg 35%
    11:00 +37°C° 0 mm 4 mps 682 mmHg 29%
    12:00 +38°C° 0 mm 3 mps 681 mmHg 26%
    13:00 +39°C° 0 mm 3 mps 680 mmHg 23%
    14:00 +40°C° 0 mm 2 mps 680 mmHg 20%
    15:00 +39°C° 0 mm 2 mps 679 mmHg 21%
    16:00 +38°C° 0 mm 2 mps 679 mmHg 22%
    17:00 +36°C° 0 mm 1 mps 678 mmHg 23%
    18:00 +35°C° 0 mm 1 mps 678 mmHg 25%
    19:00 +34°C° 0 mm 1 mps 679 mmHg 26%
    20:00 +33°C° 0 mm 1 mps 679 mmHg 28%
    21:00 +34°C° 0 mm 2 mps 679 mmHg 31%
    22:00 +32°C° 0 mm 2 mps 679 mmHg 34%
    23:00 +31°C° 0 mm 3 mps 679 mmHg 36%

    26 November, Monday

    Time Temperature Precipitation Wind Pressure Humidity
    00:00 +31°C° 0 mm 3 mps 679 mmHg 39%
    01:00 +30°C° 0 mm 3 mps 679 mmHg 41%
    02:00 +30°C° 0 mm 3 mps 678 mmHg 44%
    03:00 +29°C° 0 mm 4 mps 678 mmHg 46%
    04:00 +29°C° 0 mm 4 mps 678 mmHg 49%
    05:00 +28°C° 0 mm 4 mps 678 mmHg 51%
    06:00 +29°C° 0 mm 4 mps 679 mmHg 49%
    07:00 +30°C° 0 mm 5 mps 680 mmHg 47%
    08:00 +32°C° 0 mm 5 mps 680 mmHg 44%
    09:00 +34°C° 0 mm 5 mps 680 mmHg 39%
    10:00 +36°C° 0 mm 4 mps 680 mmHg 33%
    11:00 +38°C° 0 mm 4 mps 680 mmHg 28%
    12:00 +38°C° 0 mm 3 mps 680 mmHg 27%
    13:00 +38°C° 0 mm 3 mps 679 mmHg 26%
    14:00 +38°C° 0 mm 2 mps 678 mmHg 25%
    15:00 +38°C° 0 mm 2 mps 678 mmHg 24%
    16:00 +37°C° 0 mm 1 mps 677 mmHg 24%
    17:00 +37°C° 0 mm 1 mps 677 mmHg 23%
    18:00 +36°C° 0 mm 1 mps 677 mmHg 25%
    19:00 +35°C° 0 mm 1 mps 677 mmHg 27%
    20:00 +33°C° 0 mm 1 mps 678 mmHg 29%
    21:00 +33°C° 0 mm 1 mps 678 mmHg 30%
    22:00 +32°C° 0 mm 1 mps 678 mmHg 32%
    23:00 +32°C° 0 mm 2 mps 678 mmHg 34%
    Show more